ImprimablePdf
Running Tour > 2011 - Brussel, 02/10/2011, BEL - Brussels Marathon & Half Marathon
Liste des rapports > Half Marathon - Classement
Recherche: Page: [1] 2
208 Entrées
 
Les réclamations ne sont plus acceptées, les résultats sont considérés comme définitifs.
RangNrNomAgeIOCTempsTkmMoy.ScrLocalité
Vos photos grâce à Sportograf1.6124FNUYTENS Claire37BEL1:27:424:10 14.43111DESTELBERGEN
Vos photos grâce à Sportograf2.3395FDEJMEK Paulina35BEL1:31:504:22 13.78223KRAAINEM
Vos photos grâce à Sportograf3.3335FDEPONDT Trui36BEL1:35:344:32 13.25369OOSTENDE
Vos photos grâce à Sportograf4.3071FVAN DER STAR Jolanda39NLD1:39:134:43 12.76577AMSTERDAM
Vos photos grâce à Sportograf5.3337FPIERRET Anne36BEL1:39:544:45 12.67621HAMIPRE
Vos photos grâce à Sportograf6.6576FMICHIELS Muriel35BEL1:42:154:51 12.38789WEMMEL
Vos photos grâce à Sportograf7.4029FTHESEUS Corina37BEL1:43:094:54 12.27850WEMMEL
Vos photos grâce à Sportograf8.3460FDE BECKER Sandra39BEL1:43:104:54 12.27851OVERIJSE
Vos photos grâce à Sportograf9.6848FDROBBE Liesbet37BEL1:43:184:54 12.25865AALST
Vos photos grâce à Sportograf10.5940FLANJOUW Jarna38NLD1:44:524:59 12.07995EEXT
Vos photos grâce à Sportograf11.6781FDAGHUYT Anja37BEL1:44:544:59 12.07997DILBEEK
Vos photos grâce à Sportograf12.9470FKELLER Ewa38POL1:44:574:59 12.061005
Vos photos grâce à Sportograf13.4036FDE BROECK Karen37BEL1:45:034:59 12.051022ELEWIJT
Vos photos grâce à Sportograf14.8888FVAN LOKEREN Eva35BEL1:47:375:07 11.761222SCHELDERODE
Vos photos grâce à Sportograf15.6808FMINDOMBE Malwa37BEL1:48:025:08 11.721261SINAAI-WAAS
Vos photos grâce à Sportograf16.10234FMOCCONIENE Inga38BEL1:48:095:08 11.701273BEAUVECHAIN
Vos photos grâce à Sportograf17.9507FCEALLAIGH Eanna38BEL1:48:195:09 11.691291BRUXELLES
Vos photos grâce à Sportograf18.9790FLODDE Katelijne35NLD1:48:395:09 11.651320AMSTERDAM
Vos photos grâce à Sportograf19.5467FCROES Nancy39BEL1:49:095:11 11.601369WILLEBROEK
Vos photos grâce à Sportograf20.5635FLUMME Pirjo39LUX1:49:215:12 11.571381LUXEMBOURG
Vos photos grâce à Sportograf21.7523FNEDELKO Vesna39BEL1:49:335:12 11.551408BRUXELLES
Vos photos grâce à Sportograf22.4283FPIJPEN Laurence36BEL1:50:045:14 11.501459WEZEMBEEK OPPEM
Vos photos grâce à Sportograf23.5718FLASKA Francoise39BEL1:50:175:14 11.481482BRUSSEL 15
Vos photos grâce à Sportograf24.7477FTARI Cecile39FRA1:50:215:14 11.471497PARIS
Vos photos grâce à Sportograf25.5197FWOUTERS Ellen37BEL1:50:325:15 11.451512ANTWERPEN
Vos photos grâce à Sportograf26.7417FMOURIER Fabienne38BEL1:50:325:15 11.451513OHAIN
Vos photos grâce à Sportograf27.4312FHAVLIN Edna35BEL1:51:085:17 11.391577WATERLOO
Vos photos grâce à Sportograf28.4244FLECESNE Laetitia37BEL1:51:425:18 11.331629BRUXELLES
Vos photos grâce à Sportograf29.6430FLEGEIN Stephanie36BEL1:51:535:19 11.311650VEURNE
Vos photos grâce à Sportograf30.9887FGAILLARD Caroline35BEL1:52:175:20 11.271688JAMIOULX
Vos photos grâce à Sportograf31.3479FVERPAELE Valerie37BEL1:52:585:22 11.201767GENTBRUGGE
Vos photos grâce à Sportograf32.4583FLINDEN Stefanie35BEL1:53:555:24 11.111855MORTROUX
Vos photos grâce à Sportograf33.3979FADAM Natacha38BEL1:54:055:25 11.101880BRUXELLES
Vos photos grâce à Sportograf34.7179FHAGELSTAM Petra39BEL1:54:075:25 11.091883BRUSSELS
Vos photos grâce à Sportograf35.8213FGONNISSEN Isabelle37BEL1:54:095:25 11.091885KONTICH
Vos photos grâce à Sportograf36.10207FADANT Christelle39BEL1:54:195:26 11.071912ARLON
Vos photos grâce à Sportograf37.8885FHEURCKMANS Sofie39BEL1:54:395:27 11.041944HOEILAART
Vos photos grâce à Sportograf38.5906FSCHOSSE Nancy38BEL1:54:415:27 11.041949ROCOURT
Vos photos grâce à Sportograf39.10285FBIJNENS Chris39BEL1:54:595:28 11.011994HEVERLEE
Vos photos grâce à Sportograf40.4842FTARRY Sarah35BEL1:55:145:28 10.982021BRUSSELS
Vos photos grâce à Sportograf41.7258FDECOCK Valerie39BEL1:55:275:29 10.962050FROYENNES
Vos photos grâce à Sportograf42.10210FDERUE-BARBIER Ingrid37BEL1:55:535:30 10.922089LINKEBEEK
Vos photos grâce à Sportograf43.8109FKINET Mureille35BEL1:56:055:31 10.902115LINCENT
Vos photos grâce à Sportograf44.6562FWITTEVEEN Eelkje39NLD1:56:185:31 10.882156ZEIST
Vos photos grâce à Sportograf45.3238FPLOVIER Barbara39BEL1:56:495:33 10.842239VORST
Vos photos grâce à Sportograf46.7563FPAGE Cori35BEL1:56:555:33 10.832251OUDENAARDE
Vos photos grâce à Sportograf47.7442FVISNAR MALINOVSKA Elena35BEL1:57:205:34 10.792314UCCLE
Vos photos grâce à Sportograf48.9551FROSPO Chiara38BEL1:57:455:35 10.752364IXELLES
Vos photos grâce à Sportograf49.7777FBLANCQUAERT Kristl37BEL1:58:105:37 10.712417SINT-GILLIS-WAAS
Vos photos grâce à Sportograf50.3504FVILLAR ARRIBAS Virginia36ESP1:58:175:37 10.702430BRUSSELS
Vos photos grâce à Sportograf51.3978FJANSSENS Karen36BEL1:58:355:38 10.672472VORST
Vos photos grâce à Sportograf52.7403FBEHMER Nicole35BEL1:58:465:38 10.662497GERMANY
Vos photos grâce à Sportograf53.7209FJOLIVE MALENGREAU Aude37BEL1:59:005:39 10.642526UCCLE
Vos photos grâce à Sportograf54.7193FVROMANT Katy38BEL1:59:085:39 10.632544KESSEL
Vos photos grâce à Sportograf55.5510FELSEN Laure38LUX1:59:385:41 10.582632STEINFORT
Vos photos grâce à Sportograf56.6989FCHAMPAGNE Renee39DEU1:59:445:41 10.572646ERFENBACH
Vos photos grâce à Sportograf57.10230FVROYE Nataalie36BEL1:59:485:41 10.572656BIEZ
Vos photos grâce à Sportograf58.6212FVERHAEGEN Erika36BEL1:59:505:41 10.562663BERLAAR
Vos photos grâce à Sportograf59.7079FDEHON Nathalie39BEL1:59:595:42 10.552675BRUXELLES 1
Vos photos grâce à Sportograf60.6579FCAMPION Sara38BEL2:00:045:42 10.542685BINCHE
Vos photos grâce à Sportograf61.8399FSTEELANDT Cindy37BEL2:00:055:42 10.542687ZERKEGEM
Vos photos grâce à Sportograf62.5525FCASAULT Genevieve35CAN2:00:095:42 10.542701SAINT-ROMUALD
Vos photos grâce à Sportograf63.6878FOPALFVENS Sophie39BEL2:00:125:42 10.532709BRAINE L'ALLEUD
Vos photos grâce à Sportograf64.4362FVANOPDENBOSCH Christel37BEL2:00:205:43 10.522721BASSILLY
Vos photos grâce à Sportograf65.7584FBERGER Sabine37BEL2:00:205:43 10.522722IXELLES
Vos photos grâce à Sportograf66.7187FSNEYERS Elisabet38BEL2:00:295:43 10.512743RANST
Vos photos grâce à Sportograf67.8527FPRENG Ritaa39BEL2:01:025:45 10.462806BRUSSEL
Vos photos grâce à Sportograf68.10164FBLAIRVACQ Laurence37BEL2:01:045:45 10.462809LIMELETTE
Vos photos grâce à Sportograf69.5791FBADASIAN Lucie35BEL2:01:155:45 10.442831KESSEL
Vos photos grâce à Sportograf70.7976FLOOS RUMMENS Sofie35BEL2:01:205:46 10.432845SCHOTEN
Vos photos grâce à Sportograf71.7060FVANDEWALLE Sophie39BEL2:01:215:46 10.432849ETTERBEEK
Vos photos grâce à Sportograf72.7086FMACIEJEWSKA Dorota38BEL2:01:255:46 10.432858BRUXELLES
Vos photos grâce à Sportograf73.6630FMCCONAHAY Stephanie37BEL2:01:515:47 10.392907LEUVEN
Vos photos grâce à Sportograf74.5242FCASSIDY Liz39BEL2:02:125:48 10.362935BRUSSELS
Vos photos grâce à Sportograf75.9252FHERMANT Francoise35BEL2:02:325:49 10.332968MOZET
Vos photos grâce à Sportograf76.9963FKMETYOVA Maria38BEL2:02:455:50 10.312986BRUXELLES 1
Vos photos grâce à Sportograf77.4774FJOYCE Amanda38BEL2:03:045:51 10.293020ZAVENTEM
Vos photos grâce à Sportograf78.9573FHOCHELOVA Maria37BEL2:03:075:51 10.283025AUDERGHEM
Vos photos grâce à Sportograf79.5843FHANSE Caroline39BEL2:03:315:52 10.253057BRUXELLES (UCCLE)
Vos photos grâce à Sportograf80.4943FFIELD Kirsty38BEL2:03:325:52 10.253058WOLUWE ST PIERRE
Vos photos grâce à Sportograf81.9834FOLBRECHTS France37BEL2:03:325:52 10.253060PETIT-ENGHIEN
Vos photos grâce à Sportograf82.8921FIEMANTS Tania36BEL2:03:355:52 10.243064WILLEBROEK
Vos photos grâce à Sportograf83.7682FSCHOUT Marijke39BEL2:03:485:53 10.223091WILSELE
Vos photos grâce à Sportograf84.9614FKLOPP Anouk39BEL2:03:495:53 10.223093
Vos photos grâce à Sportograf85.5855FLYS Sandra36BEL2:04:065:53 10.203118VLEZENBEEK
Vos photos grâce à Sportograf86.7811FAGAR Aurora36NLD2:04:345:55 10.163169MAASTRICHT
Vos photos grâce à Sportograf87.7330FMOLINA Nuria35BEL2:04:485:55 10.143199BRUSSELS
Vos photos grâce à Sportograf88.8351FBIRMANN Cindy35BEL2:04:585:56 10.133219X
Vos photos grâce à Sportograf89.5214FOLLES BERCERO Natalia37ESP2:05:075:56 10.123234HUESCA
Vos photos grâce à Sportograf90.5189FARA PORTE Maria Jesus38ESP2:05:085:56 10.123237HUESCA
Vos photos grâce à Sportograf91.6620FSOENENS Muriel35BEL2:05:115:57 10.113244JUMET (CHARLEROI)
Vos photos grâce à Sportograf92.8354FLEE Li37BEL2:05:145:57 10.113247X
Vos photos grâce à Sportograf93.6556FHEMLER Audrey37NLD2:05:495:58 10.063310ROTTERDAM
Vos photos grâce à Sportograf94.5213FVAN BELLE Anne36BEL2:06:015:59 10.043329BRUGGE
Vos photos grâce à Sportograf95.9894FCHRISTOPHE Na Young38BEL2:06:286:00 10.013381BRUXELLES 19
Vos photos grâce à Sportograf96.8230FSTOCKE Kristien37BEL2:06:316:00 10.013391GIJZEGEM
Vos photos grâce à Sportograf97.7239FWILLIAMS Claire39BEL2:06:436:01 9.993412TERVUREN
Vos photos grâce à Sportograf98.3446FDE DONCKER Kirsten38BEL2:06:486:01 9.983425ANTWERPEN
Vos photos grâce à Sportograf99.10499FRIVA Renata35BEL2:07:226:03 9.943467ETTERBEEK
Vos photos grâce à Sportograf100.9866FCLOESPIN Benedicte35BEL2:07:286:03 9.933477COUT SAINT ETIENNE
Vos photos grâce à Sportograf101.6413FSOETAERT Anja38DEU2:07:326:03 9.933485SELFKANT-ISENBRUCH
Vos photos grâce à Sportograf102.7994FPAPRZYCKA Elzbieta36BEL2:07:506:04 9.903518BRUXELLES
Vos photos grâce à Sportograf103.8000FOLISLAGERS Veronique39BEL2:07:536:04 9.903523FOREST
Vos photos grâce à Sportograf104.4941FMAES Leen35BEL2:07:546:04 9.903527HOEVENEN
Vos photos grâce à Sportograf105.7846FROSSO Lula39BEL2:07:596:04 9.893535IXELLES
Vos photos grâce à Sportograf106.6528FHAMMINK Monique39NLD2:08:096:05 9.883548LEUSDEN
Vos photos grâce à Sportograf107.8402FOTTEVAERE Sally39BEL2:08:106:05 9.883550BERCHEM (ANTWERPEN)
Vos photos grâce à Sportograf108.9146FORY Lien37BEL2:08:456:07 9.833608HEVERLEE
Vos photos grâce à Sportograf109.8071FMURRATH Sandrine36BEL2:08:476:07 9.833611DILBEEK
Vos photos grâce à Sportograf110.6962FWELLEMANS Liesbeth39BEL2:08:486:07 9.833613LENNIK
Vos photos grâce à Sportograf111.7282FBRAEM Katrien35BEL2:08:496:07 9.833614VRASENE
Vos photos grâce à Sportograf112.7997FSALINAS Yalesmi36BEL2:08:566:07 9.823621NINOVE
Vos photos grâce à Sportograf113.8404FVAN OPPENS Ann35BEL2:09:396:09 9.763675EINDHOUT
Vos photos grâce à Sportograf114.6713FBEDOUET Carine35BEL2:09:416:09 9.763678BRUXELLES
Vos photos grâce à Sportograf115.5860FCOENEN Heidi37BEL2:10:036:10 9.733723NIJLEN
Vos photos grâce à Sportograf116.5975FAPPELMANS Sabine39BEL2:10:096:11 9.733735ASSE
Vos photos grâce à Sportograf117.9025FVERSICHEL Nathalie38BEL2:11:056:13 9.663830SINT-PIETERS-LEEUW
Vos photos grâce à Sportograf118.9639FDEGHESELLE Adelheid39BEL2:11:346:15 9.623866
Vos photos grâce à Sportograf119.4089FURBERG Charlotta39BEL2:11:386:15 9.623874WOLUWE ST PIERRE
Vos photos grâce à Sportograf120.7461FVAN CUTSEM Hilde36BEL2:11:456:15 9.613885GOOIK
Vos photos grâce à Sportograf121.7054FVANDER ELST Sigrid39BEL2:11:506:15 9.603890SCHIPLAKEN
Vos photos grâce à Sportograf122.10436FSWIDERSKI Zoe36BEL2:12:236:17 9.563935BOMALL
Vos photos grâce à Sportograf123.8133FKOCH Ewa37BEL2:12:316:17 9.553948ZAVENTEM
Vos photos grâce à Sportograf124.7082FKEERSMAKERS Shirley39BEL2:13:276:20 9.494015EKEREN (ANTWERPEN)
Vos photos grâce à Sportograf125.7398FVANDERSTAPPEN Frederick39BEL2:13:376:21 9.474031BRUXELLES
Vos photos grâce à Sportograf126.6918FMURRAY Sarah37BEL2:13:376:21 9.474032BRUSSELS
Vos photos grâce à Sportograf127.4604FDIMITROVA Elitza35BEL2:14:076:22 9.444069WOLUWE STAINT PIERRE
Vos photos grâce à Sportograf128.4868FVAN HUMBEECK Sandra39BEL2:14:276:23 9.414096STERREBEEK
Vos photos grâce à Sportograf129.3994FKRYEMADHI Alma36BEL2:14:436:24 9.404114BRUXELLES
Vos photos grâce à Sportograf130.4049FVERSTRAETEN Catherine35BEL2:14:556:24 9.384129GROOT-BIJGAARDEN
Vos photos grâce à Sportograf131.6396FBRAEM Tania37BEL2:15:026:25 9.374136WUUSTWEZEL
Vos photos grâce à Sportograf132.7077FBOETHUIS Eva39BEL2:15:226:25 9.354166BRUSSELS
Vos photos grâce à Sportograf133.4285FREMIENCE Annick38BEL2:15:226:25 9.354167BRAINE-LE-COMTE
Vos photos grâce à Sportograf134.4212FBYWALSKI Lara37BEL2:15:286:26 9.344175THIMEON
Vos photos grâce à Sportograf135.5704FDEMSAR Mateja35BEL2:15:306:26 9.344179ETTERBEEK
Vos photos grâce à Sportograf136.5488FKLENKE Aleksandra36BEL2:16:256:28 9.284225BRUSSELS
Vos photos grâce à Sportograf137.9669FGROVEN Lesley37BEL2:17:106:31 9.234277HASSELT
Vos photos grâce à Sportograf138.7623FDE PAUW Adinda39BEL2:17:476:32 9.194309BAASRODE
Vos photos grâce à Sportograf139.5080FWILLEMS Veerle36BEL2:17:516:33 9.184317ORP-JAUCHE
Vos photos grâce à Sportograf140.6155FALVAREZ SAEZ Elvira35BEL2:17:556:33 9.184322BRUSSEL
Vos photos grâce à Sportograf141.5266FNATOWITZ Cecile36BEL2:18:036:33 9.174334LINKEBEEK
Vos photos grâce à Sportograf142.5162FVERNON Marika38BEL2:18:086:33 9.164340BRUSSELS
Vos photos grâce à Sportograf143.10265FJACQUES Delphine35BEL2:18:146:34 9.164347LINKEBEEK
Vos photos grâce à Sportograf144.6269FREGOUT Sophie39BEL2:18:556:36 9.114393BRUXELLES
Vos photos grâce à Sportograf145.7296FPOLITTE Maria39BEL2:19:286:37 9.084421BRUSSELS
Vos photos grâce à Sportograf146.10390FSTEPHANOVA Rados39BEL2:19:306:37 9.074425TERVUREN
Vos photos grâce à Sportograf147.5284FPOULSEN Lise36BEL2:19:366:38 9.074434BRUXELLES
Vos photos grâce à Sportograf148.3608FBODART Rehana37BEL2:20:096:39 9.034458BEEZ
Vos photos grâce à Sportograf149.9482FFEO Katia39BEL2:20:416:41 9.004486BRUXELLES
Vos photos grâce à Sportograf150.5025FVANHENTENRIJK Katleen37BEL2:20:536:41 8.984491BRUSSEL
Vos photos grâce à Sportograf151.8757FPALMAI Bea38BEL2:20:566:41 8.984496RHODE SAINT GENESE
Vos photos grâce à Sportograf152.4523FKORRES Anne-Marie39BEL2:20:586:41 8.984497ANTWERPEN
Vos photos grâce à Sportograf153.5689FDE SCHUTTER Veronique36BEL2:21:006:42 8.984502AYE
Vos photos grâce à Sportograf154.5514FCLOETENS Heidi38BEL2:21:086:42 8.974513ELEWIJT
Vos photos grâce à Sportograf155.10036FWENDELEN Laila35BEL2:21:336:43 8.944538
Vos photos grâce à Sportograf156.9940FGUILLAUME Marie-Helene39BEL2:22:196:45 8.894573SAINT-MEDARD
Vos photos grâce à Sportograf157.5769FWILSENS Eva38BEL2:22:296:46 8.884584MOLENBEEK
Vos photos grâce à Sportograf158.6084FCHEVALIER Colette37BEL2:23:036:47 8.854600BRAINE-LE-CHATEAU
Vos photos grâce à Sportograf159.8595FDIERICKX Sophie36BEL2:23:106:48 8.844605ANTWERPEN
Vos photos grâce à Sportograf160.5642FKERREMANS Inge36BEL2:23:206:48 8.834616MECHELEN
Vos photos grâce à Sportograf161.7952FGROSSI Paola35BEL2:23:346:49 8.824624BRUXELLES
Vos photos grâce à Sportograf162.9557FBELINOVA Brigitta35CZE2:23:446:49 8.814635NYHBURK
Vos photos grâce à Sportograf163.5424FJANSSEN Nathalie39LUX2:24:086:50 8.784655LUXEMBOURG
Vos photos grâce à Sportograf164.8688FDOUMIT Sonia35BEL2:24:266:51 8.764664OHAIN
Vos photos grâce à Sportograf165.9811FVANCUYCK Liesbeth37BEL2:25:036:53 8.734681LEUVEN
Vos photos grâce à Sportograf166.10124FPOIKANE Ruta38LAT2:25:406:55 8.694715RIGA
Vos photos grâce à Sportograf167.6016FCHARUE Delphine38BEL2:25:416:55 8.694716BURE
Vos photos grâce à Sportograf168.10005FHIG Hulda36BEL2:25:556:56 8.674727
Vos photos grâce à Sportograf169.5118FSTOVRING Kristina Badike36DEN2:26:416:58 8.634756RUDS VEDBY
Vos photos grâce à Sportograf170.7084FSMEULDERS Nathalie39BEL2:26:506:58 8.624763EKEREN (ANTWERPEN)
Vos photos grâce à Sportograf171.10481FALBIAC Juliette37BEL2:27:207:00 8.594791BRUXELLES 21
Vos photos grâce à Sportograf172.5613FMERTENS Annelies37BEL2:27:257:00 8.594796LINDEN
Vos photos grâce à Sportograf173.5015FLURWIG Gabriella35BEL2:27:257:00 8.594798GAASBEEK
Vos photos grâce à Sportograf174.5572FSPENCER Kate38GBR2:27:477:01 8.574812LONDON
Vos photos grâce à Sportograf175.4837FPIERRE Dominique37BEL2:28:077:02 8.554825BRUXELLES
Vos photos grâce à Sportograf176.7841FVAN KELST Kirsten35BEL2:28:277:03 8.534833DUISBURG
Vos photos grâce à Sportograf177.5341FDEVILLE Jo39BEL2:28:317:03 8.524837DWORP
Vos photos grâce à Sportograf178.5359FSISTERMANS Eelke38NLD2:28:537:04 8.504848MAASTRICHT
Vos photos grâce à Sportograf179.6076FJANSSENS Audrey36BEL2:29:057:05 8.494862VILVOORDE
Vos photos grâce à Sportograf180.6069FSCHUPPEN Ann36BEL2:29:067:05 8.494863BRUXELLES
Vos photos grâce à Sportograf181.10009FMERTZ Jenna35BEL2:29:087:05 8.494866
Vos photos grâce à Sportograf182.9980FMATKAVA Sophie38BEL2:29:137:05 8.484870BRUXELLES 6
Vos photos grâce à Sportograf183.7295FFIDLERS Ann38BEL2:30:357:09 8.414907SCHOTEN
Vos photos grâce à Sportograf184.4322FLE BILLAN Carole39FRA2:30:397:09 8.404912LILLE
Vos photos grâce à Sportograf185.5666FHARUNA Mutsumi37BEL2:31:317:11 8.354937WOLUWE-ST-PIERRE
Vos photos grâce à Sportograf186.4812FVAN HOORICK Greet36BEL2:31:557:13 8.334945ZELE
Vos photos grâce à Sportograf187.4952FMARTIN Alexandra39BEL2:32:067:13 8.324950HEVER
Vos photos grâce à Sportograf188.8124FLOUIS Marie39BEL2:32:127:13 8.324953AUDERGHEM
Vos photos grâce à Sportograf189.4722FFERRANT Gaetane36BEL2:32:147:13 8.314954FRASNES-LEZ-BUISSENAL
Vos photos grâce à Sportograf190.8120FFOCAN Muriel35BEL2:32:207:14 8.314957CHAUMONT-GISTOUX
Vos photos grâce à Sportograf191.8801FCOPPOLA Nathalie38BEL2:32:457:15 8.294967TAINTIGNIES
Vos photos grâce à Sportograf192.5633FMALAGODI Chiara38BEL2:37:427:29 8.035072BRUXELLES
Vos photos grâce à Sportograf193.8622FPOWER Maeve37BEL2:39:357:34 7.935111IXELLES
Vos photos grâce à Sportograf194.5690FBROVC Nina36BEL2:40:297:37 7.895117BRUSSELS
Vos photos grâce à Sportograf195.5605FSAMUEL Evelin36EST2:40:417:37 7.885120TALLINN
Vos photos grâce à Sportograf196.5808FPEREIRA Olinda39BEL2:40:587:38 7.865126WATERLOO
Vos photos grâce à Sportograf197.5647FGRABCZAN Lidia35BEL2:41:437:40 7.835138BRUXELLES
DNF: abandon; DSQ: disqualifié; Vitesse en km/h
ChronoRace - Electronic Timing - www.chronorace.be